RH
19 16 15 16 18 21 24 26 27 25 26 18 14 16 17 18 19 18 16 14 13 6 8 7 12 19 37 32 33 33 19 18 18 20 31 31 32 26 19 20 22 14 14 13 14 25 22
21 18 18 18 20 23 24 27 27 26 20 15 17 18 18 20 19 18 16 15 9 7 7 10 20 32 35 31 33 31 30 30 27 30 29 28 26 26 24 22 18 14 11 10 11 11 12
22 20 20 20 22 25 27 27 26 22 14 20 19 20 20 21 19 18 16 13 9 8 10 20 28 42 36 32 34 31 29 29 30 31 27 24 23 23 20 19 14 14 14 12 13 12 10
22 20 22 23 24 26 26 27 24 14 20 21 20 21 22 21 18 15 13 11 8 13 21 21 40 44 38 28 30 30 28 26 30 30 26 24 24 21 17 16 19 14 17 15 13 12 12
20 20 23 23 25 26 28 26 16 17 20 22 21 22 21 19 14 14 11 11 21 24 23 24 39 36 38 29 29 28 26 27 28 29 25 22 23 18 16 15 16 15 18 19 20 23 24
19 21 24 23 27 28 27 18 17 22 20 22 22 22 20 15 14 12 20 26 25 23 21 34 38 30 27 26 21 25 24 23 26 24 20 22 22 22 21 16 15 15 18 18 19 20 23
18 22 25 25 27 29 21 19 24 22 22 21 23 21 17 13 15 25 27 25 20 18 26 24 33 35 30 28 16 18 19 14 18 19 17 22 22 20 19 20 19 20 22 23 22 19 21
16 23 25 27 30 23 19 27 26 21 22 22 23 17 15 22 28 30 25 21 17 21 23 35 35 28 30 31 20 13 17 13 10 18 22 25 28 27 24 24 21 22 24 25 25 23 23
15 24 27 29 26 19 26 30 26 22 24 20 18 18 29 29 28 29 40 29 34 37 39 38 33 34 34 25 20 13 16 25 22 29 27 26 29 28 26 24 21 25 24 23 25 29 28
18 23 27 27 22 23 32 32 26 24 24 20 21 32 32 31 34 72 45 48 42 41 37 35 31 35 33 28 18 14 25 28 27 26 26 27 26 29 31 29 32 27 27 29 28 25 33
19 23 25 26 20 32 36 31 30 26 25 24 31 34 36 39 81 66 59 46 45 41 47 28 30 34 31 28 14 24 28 30 28 29 28 34 36 31 30 32 26 34 32 29 26 28 34
25 24 26 24 22 36 39 31 32 31 28 31 35 39 40 58 51 66 58 44 45 51 37 34 34 22 33 30 19 30 30 28 29 30 33 30 32 33 36 29 30 35 38 42 42 41 46
19 22 25 22 30 40 41 33 35 36 31 35 40 45 43 64 60 66 48 42 45 56 35 33 26 33 37 31 22 26 34 33 33 32 32 33 28 31 42 37 37 34 37 44 55 64 68
18 20 25 27 39 46 42 36 38 40 33 38 45 48 43 64 58 53 42 42 50 38 33 29 33 38 38 35 28 34 37 37 36 32 41 42 35 30 44 44 39 36 39 43 55 70 51
21 25 26 34 46 47 44 38 40 42 37 36 46 45 40 49 52 48 38 40 52 33 34 37 38 43 43 44 41 34 35 39 40 43 39 44 33 26 40 43 43 31 25 40 42 52 54
30 31 32 42 50 46 47 40 39 43 41 35 39 43 37 34 40 44 41 53 44 34 34 38 40 36 40 42 44 43 39 34 43 45 40 44 39 48 46 36 36 31 36 36 39 55 54
31 39 41 52 51 46 47 42 39 41 42 40 37 37 36 29 32 40 38 62 44 37 35 40 39 39 38 41 44 43 43 37 41 42 45 38 30 43 49 40 42 40 27 30 36 45 63
38 50 50 57 53 48 43 41 41 40 42 42 39 36 32 30 36 38 38 70 53 40 34 33 37 36 37 36 41 43 43 35 32 33 40 33 34 45 34 24 29 26 30 28 30 47 44
44 59 62 61 58 49 40 38 42 40 40 38 36 34 30 29 32 32 35 72 61 54 39 36 36 39 38 37 42 45 45 44 30 22 38 36 40 42 46 38 36 37 40 46 36 36 47
56 71 66 66 62 50 38 38 40 42 39 39 33 32 28 27 29 29 23 57 60 53 43 40 38 42 39 43 44 43 45 42 39 23 30 36 30 25 26 31 34 39 48 42 42 43 41
70 72 70 66 58 51 42 39 37 42 38 37 35 43 24 22 25 28 33 60 55 55 44 48 47 46 45 44 46 46 46 46 30 20 20 24 25 31 31 28 26 31 38 39 38 39 46
74 71 69 61 55 52 48 41 36 40 38 36 40 65 25 31 20 24 55 65 63 53 42 39 34 42 47 47 45 46 47 39 30 17 12 22 23 26 27 24 23 24 27 29 30 32 35
74 70 65 59 57 54 54 42 36 37 36 37 68 70 56 38 21 19 43 70 52 56 56 50 45 41 41 49 48 45 43 40 25 12 8 12 18 30 24 22 30 33 18 19 24 23 30
72 67 64 60 62 61 58 48 38 33 33 69 88 67 64 48 21 21 53 64 56 57 48 43 43 48 52 57 56 57 51 49 45 29 22 16 18 22 23 31 44 15 15 22 26 22 32
68 65 65 70 69 63 56 41 38 34 59 94 84 68 52 40 49 58 70 65 62 60 62 57 51 54 58 62 60 57 56 55 51 44 27 22 24 24 24 31 23 18 18 19 23 24 28
65 65 68 79 84 64 56 38 35 46 76 98 84 71 61 58 73 69 67 70 63 60 63 58 57 56 60 64 60 56 49 37 24 24 24 23 29 30 31 32 42 15 15 18 27 34 22
64 65 69 85 90 66 56 38 40 47 73 97 78 73 57 63 66 66 64 64 64 61 60 59 58 59 59 63 63 60 50 36 26 24 20 23 31 36 34 35 28 19 20 25 50 21 28
72 62 66 74 90 79 59 43 39 46 79 77 59 49 50 45 50 55 52 53 54 66 60 60 62 62 62 66 64 59 45 34 32 30 27 29 30 29 41 44 38 19 24 30 23 30 38
61 58 59 62 75 89 73 57 48 46 60 59 54 53 49 49 43 42 48 56 67 66 64 65 66 64 64 60 53 44 31 28 26 32 26 39 26 28 28 23 23 27 32 38 45 49 49
Wind_Speed
28 27 27 29 28 28 28 28 28 27 28 27 25 23 19 15 13 13 13 12 12 11 12 14 14 15 14 13 13 10 13 10 8 7 11 9 7 12 17 12 8 9 15 13 14 18 19
28 27 27 26 26 26 26 27 27 26 27 24 21 19 15 13 11 12 11 11 12 13 15 17 18 18 17 16 12 13 13 12 9 11 6 6 9 3 5 9 7 16 14 11 11 13 14
29 28 26 24 24 25 25 25 25 25 25 20 17 15 12 10 10 11 12 13 13 15 18 19 21 17 14 13 10 13 13 13 12 9 8 10 7 4 2 14 17 12 10 10 17 17 15
31 29 26 25 23 24 23 24 24 23 21 16 12 11 9 9 11 13 14 14 15 18 19 21 21 13 13 17 12 12 12 11 10 8 9 9 5 8 8 16 18 11 6 10 14 13 14
32 30 27 25 24 23 22 23 22 18 17 12 8 8 8 10 12 14 15 17 17 18 19 23 15 9 11 16 15 16 10 10 7 5 2 8 7 17 17 20 17 11 8 5 5 8 5
35 31 28 25 23 23 21 21 19 13 13 9 8 9 11 13 15 17 18 17 17 18 22 20 11 7 6 11 19 15 9 9 9 9 8 9 7 9 9 10 8 6 10 10 12 7 10
36 32 28 26 23 23 20 20 14 11 10 9 10 11 15 18 20 20 18 16 15 17 24 14 7 4 8 5 17 20 13 11 11 7 11 11 5 5 5 5 4 4 11 16 11 17 15
37 33 29 27 24 22 20 16 12 11 10 11 13 17 22 24 22 22 17 16 17 17 18 10 9 8 9 8 9 19 14 13 13 13 13 8 5 5 2 3 5 6 4 17 14 11 11
39 35 31 28 26 22 20 16 13 13 12 15 19 25 26 24 24 23 18 18 18 14 10 10 9 7 4 6 11 16 13 14 15 9 9 6 8 6 7 5 6 15 16 18 13 5 8
39 37 33 28 27 23 21 18 16 16 17 21 26 28 27 26 26 18 21 19 17 13 8 8 6 7 5 6 10 15 14 12 8 9 10 8 10 10 8 3 7 13 13 9 11 8 12
41 38 34 30 28 26 23 21 20 20 22 27 30 29 29 30 21 22 20 20 17 8 3 9 8 12 9 8 14 15 10 9 12 15 8 8 6 8 5 6 7 8 8 7 7 9 13
42 39 34 33 30 28 26 24 23 23 26 31 32 30 29 27 25 23 21 20 15 1 2 8 8 12 12 10 15 16 13 13 10 7 7 10 9 7 7 7 8 9 8 8 4 5 3
43 40 37 34 32 31 30 28 27 26 29 33 32 29 30 26 25 23 23 21 8 4 12 10 12 14 13 11 14 17 16 16 11 13 10 6 6 6 13 8 4 7 10 3 0 0 4
44 40 37 36 35 34 33 31 30 29 30 34 32 29 31 28 23 24 21 17 6 6 11 14 18 14 16 16 15 17 14 13 11 7 15 5 4 6 12 10 4 6 8 4 5 3 3
44 41 39 38 36 36 35 34 32 31 31 35 33 29 29 30 22 23 20 13 1 12 11 21 18 15 15 11 11 13 14 12 11 11 6 6 4 8 8 9 7 2 5 4 6 3 2
44 42 40 38 36 37 37 36 34 32 32 33 33 31 28 30 25 24 20 7 4 12 21 20 20 14 17 12 14 13 10 12 14 14 15 8 9 11 9 7 5 4 4 2 2 3 2
45 42 40 38 37 37 37 37 35 33 33 32 30 32 29 27 25 27 22 6 7 14 19 20 17 13 9 18 13 13 9 9 15 13 16 12 8 11 9 4 6 4 1 2 4 2 5
45 42 39 37 36 35 37 38 36 35 34 33 30 29 30 28 26 28 25 8 9 10 16 14 16 7 12 17 16 12 8 7 12 13 13 12 9 11 7 7 6 3 3 2 2 4 4
45 42 39 37 34 35 37 38 37 36 36 34 31 28 29 29 30 31 27 10 12 10 12 14 12 11 14 19 15 14 12 8 9 11 13 13 9 10 4 6 8 7 7 5 3 5 8
44 40 38 35 34 35 36 37 38 37 35 32 31 28 29 31 32 31 27 13 14 12 11 13 14 13 15 15 11 9 11 9 10 11 15 15 12 10 10 4 8 9 10 9 9 7 9
44 39 37 35 33 33 34 36 38 38 36 35 33 25 33 34 34 29 25 16 14 11 13 13 13 15 15 16 13 13 11 12 11 11 14 15 10 15 9 8 8 10 12 15 17 17 14
42 39 36 33 32 32 33 35 38 38 37 36 32 22 29 13 30 29 27 19 13 12 13 13 15 16 14 15 14 9 13 12 12 14 15 16 8 13 11 12 13 15 16 17 19 20 23
41 38 35 32 31 32 32 34 37 38 38 37 30 24 25 24 29 31 33 20 11 14 16 12 9 11 13 12 11 8 8 7 9 10 14 15 12 11 7 12 12 14 20 20 16 17 17
40 38 34 31 31 32 32 33 36 38 37 31 24 24 24 24 30 29 26 19 16 11 9 11 11 13 12 10 8 8 8 7 7 8 11 13 13 10 6 6 1 14 14 15 18 19 18
40 37 33 31 30 31 29 32 36 36 39 27 25 22 23 23 26 25 24 22 17 16 14 10 7 11 10 12 10 7 9 9 13 13 13 13 14 11 6 12 13 13 16 19 20 20 18
37 36 33 31 29 29 28 32 36 41 39 31 20 21 19 29 26 24 23 19 21 18 18 16 12 14 14 16 15 10 7 7 5 6 16 20 19 18 11 6 6 9 11 14 19 25 19
37 36 34 31 30 29 28 33 41 37 35 19 16 20 21 26 25 26 24 22 18 19 19 18 16 17 18 18 18 17 14 12 9 9 12 15 20 22 22 14 11 17 19 17 15 17 9
37 36 34 30 30 30 29 32 38 34 33 21 17 16 16 20 20 22 23 22 18 18 18 18 18 19 20 19 18 17 12 15 16 19 18 15 11 15 18 14 15 20 20 20 17 17 24
35 35 32 30 28 31 30 30 31 33 29 22 18 17 17 18 17 20 20 19 17 16 17 16 15 13 12 13 18 16 14 14 17 19 21 21 23 19 19 17 19 18 18 21 24 27 27
Wind_Direction
253 254 255 259 261 262 265 269 274 279 284 288 294 294 287 279 271 252 242 235 224 212 200 197 179 163 153 143 125 115 137 148 157 151 154 154 167 181 188 199 214 179 154 155 145 178 199
250 250 253 258 259 261 264 269 274 278 283 290 293 288 279 264 254 238 222 215 201 190 191 182 168 154 152 151 146 133 116 111 122 123 128 160 137 188 255 216 204 183 163 170 173 175 173
246 246 250 253 255 259 264 269 274 279 284 289 290 282 268 248 231 214 203 194 184 183 182 175 158 159 165 155 173 149 129 121 120 136 115 135 156 154 246 170 167 170 191 210 181 178 189
243 243 245 247 250 256 263 268 272 279 285 285 285 269 249 221 207 199 185 179 175 175 175 170 161 162 167 179 183 159 137 119 137 153 130 127 112 136 164 156 166 184 150 141 164 187 207
239 240 243 245 246 253 257 262 267 276 280 279 262 235 210 198 192 178 169 165 166 170 171 164 165 166 177 196 188 171 153 159 155 176 127 145 145 130 136 147 159 183 195 190 172 176 187
233 235 238 240 242 246 250 256 261 270 269 253 219 204 185 176 168 161 156 157 162 169 170 156 151 191 188 182 196 178 163 192 186 177 193 191 176 146 143 176 190 228 225 240 237 237 236
229 229 230 232 235 239 243 247 252 255 246 221 194 181 172 157 154 152 153 155 160 169 169 168 176 161 149 148 195 190 191 197 203 215 187 180 152 136 148 160 173 223 256 255 251 234 225
225 224 225 227 229 230 232 232 234 232 213 193 176 167 158 153 156 145 149 154 153 156 165 187 167 149 140 148 156 183 184 196 200 168 160 151 119 151 192 204 183 221 159 137 138 179 202
220 219 221 221 223 221 219 215 214 211 189 175 167 160 155 153 152 151 159 150 146 145 151 171 163 158 145 158 166 177 178 171 169 155 154 170 152 179 212 232 181 169 162 166 161 120 164
215 215 217 215 217 210 206 203 199 192 179 169 165 160 159 159 157 159 158 157 153 149 150 162 176 175 200 165 163 167 169 166 180 159 159 152 175 194 185 217 162 181 175 168 178 199 176
210 213 211 211 210 202 196 197 191 183 175 168 168 164 163 164 167 164 164 164 157 142 79 170 169 171 186 175 171 165 161 148 153 148 149 150 181 198 202 215 183 185 193 193 212 206 175
210 209 205 207 202 196 190 191 185 180 174 172 172 171 173 168 171 171 176 170 173 197 196 160 172 174 168 159 168 163 151 153 153 168 171 169 184 201 213 196 187 185 182 183 177 164 143
208 209 199 202 196 190 187 188 184 180 176 178 177 179 179 174 174 179 177 177 180 236 160 176 178 163 165 158 165 173 153 151 154 145 153 150 148 163 170 173 174 194 194 151 130 331 193
204 205 200 196 192 188 187 187 184 180 180 184 183 185 186 184 181 181 183 181 228 173 165 157 151 152 145 146 155 169 168 168 170 183 153 145 151 163 184 198 193 173 195 191 183 182 202
199 198 199 193 188 187 186 187 184 180 183 189 187 190 192 192 188 182 184 197 207 165 175 155 152 155 160 161 164 173 187 185 187 190 170 159 124 135 160 191 180 176 140 149 117 101 110
194 192 195 191 187 187 186 187 185 181 185 189 193 195 194 196 196 190 194 200 146 176 169 173 166 176 178 180 171 185 175 200 201 197 200 184 142 147 137 135 159 173 152 151 130 124 182
192 188 190 188 187 186 186 188 184 182 187 188 192 196 196 197 196 196 197 163 142 171 178 181 183 190 198 184 183 188 202 201 193 184 195 186 178 179 182 181 160 161 158 120 127 151 156
188 184 185 187 186 187 187 188 185 184 190 189 192 192 197 196 199 199 191 161 172 164 189 196 197 219 212 186 195 206 213 214 198 195 191 183 176 155 170 181 188 192 197 196 206 215 213
185 180 182 185 184 189 186 187 185 187 192 191 191 193 197 200 204 198 191 186 193 198 197 206 211 212 209 192 198 210 218 219 212 200 191 183 178 143 167 200 216 228 220 232 268 219 217
179 178 180 182 186 187 186 186 185 187 191 189 189 191 195 202 207 202 198 200 202 212 226 219 208 200 189 193 205 213 213 222 215 210 199 199 195 200 200 184 187 214 222 235 231 228 238
176 175 176 181 184 184 185 185 185 187 188 189 189 193 199 202 203 200 189 193 195 213 218 204 199 206 210 213 225 231 225 224 215 222 216 212 221 215 224 215 223 229 239 251 253 258 250
172 173 177 177 182 183 183 183 185 187 187 189 187 192 196 203 203 194 187 191 198 216 225 222 217 225 230 241 252 259 236 229 220 225 219 215 224 219 222 232 246 252 245 247 254 256 260
169 171 171 176 180 179 179 182 185 186 186 185 187 187 189 196 191 194 196 196 195 211 218 222 225 222 222 230 236 232 217 221 232 237 228 226 229 219 237 246 251 262 256 253 242 259 263
168 169 169 175 178 175 179 183 184 184 184 173 184 190 189 195 191 191 191 192 193 187 205 219 209 213 223 229 234 232 240 241 244 239 232 230 231 225 258 239 289 261 263 229 246 263 263
167 165 168 173 173 173 177 182 181 177 172 175 186 186 187 192 183 184 194 201 199 201 211 221 211 210 233 237 227 213 224 248 252 255 247 239 237 230 226 226 260 253 244 248 263 268 270
163 167 168 170 166 169 172 176 176 172 180 180 158 175 181 182 183 189 189 193 201 202 202 216 210 216 228 228 218 225 225 223 238 240 239 236 234 232 226 231 219 263 256 256 254 259 274
166 168 167 168 161 165 167 174 175 180 187 180 157 177 186 188 197 205 204 202 205 211 214 217 223 226 232 230 228 235 239 241 241 242 252 239 236 235 243 249 258 275 270 253 230 269 263
169 168 166 166 163 162 167 171 181 185 189 195 192 195 189 192 194 200 209 215 209 209 216 219 225 233 234 227 239 247 244 243 245 250 259 259 243 238 236 243 262 269 251 241 279 272 293
171 166 167 166 167 164 167 170 177 187 196 203 202 199 194 195 200 201 208 212 212 224 228 233 238 239 229 233 242 247 239 243 253 248 258 247 258 258 254 263 274 278 284 283 281 285 298